FW8165 Weather Reports


Display with metric or nautical units.
time (UTC)temp
F
wind
direction
speed
MPH
gust
MPH
rain 1hr
in
rain 24hr
in
rain mn
in
humidity
%
barometer
mb
20260509124108 70 287 0.0 0.0 0.00 0.00 0.00 90 1013.5
20260509123606 70 270 0.0 0.0 0.00 0.00 0.00 90 1013.5
20260509123102 70 276 0.0 0.0 0.00 0.00 0.00 91 1013.5
20260509122558 69 313 0.0 0.0 0.00 0.00 0.00 91 1013.5
20260509122056 69 335 0.0 0.0 0.00 0.00 0.00 92 1013.5
20260509121552 68 306 0.0 0.0 0.00 0.00 0.00 93 1013.2
20260509121050 68 288 0.0 0.0 0.00 0.00 0.00 93 1013.2
20260509120548 67 282 0.0 0.0 0.00 0.00 0.00 95 1013.2
20260509120046 66 12 0.0 0.0 0.00 0.00 0.00 96 1013.2
20260509115542 65 329 0.0 0.0 0.00 0.00 0.00 98 1013.2
20260509115040 65 305 0.0 0.0 0.00 0.00 0.00 98 1013.2
20260509114538 65 288 0.0 0.0 0.00 0.00 0.00 98 1013.2
20260509114037 64 271 0.0 0.0 0.00 0.00 0.00 98 1013.2
20260509113535 64 267 0.0 0.0 0.00 0.00 0.00 98 1013.2
20260509113032 64 282 0.0 0.0 0.00 0.00 0.00 98 1013.2
20260509112528 64 286 0.0 0.0 0.00 0.00 0.00 98 1013.2
20260509112025 64 216 0.0 0.0 0.00 0.00 0.00 98 1013.2
20260509111523 64 216 0.0 0.0 0.00 0.00 0.00 98 1013.2
20260509111020 64 228 0.0 0.0 0.00 0.00 0.00 98 1013.2
20260509110516 63 238 0.0 0.0 0.00 0.00 0.00 98 1013.2
20260509110014 63 238 0.0 0.0 0.00 0.00 0.00 98 1012.5
20260509105512 63 238 0.0 0.0 0.00 0.00 0.00 98 1012.5
20260509105009 63 234 0.0 0.0 0.00 0.00 0.00 98 1012.5
20260509104506 63 234 0.0 0.0 0.00 0.00 0.00 98 1012.5
20260509104003 63 282 0.0 0.0 0.00 0.00 0.00 98 1012.5
20260509103501 63 267 0.0 0.0 0.00 0.00 0.00 98 1012.5
20260509102958 63 265 0.0 0.0 0.00 0.00 0.00 98 1012.5
20260509102456 63 243 0.0 0.0 0.00 0.00 0.00 97 1012.5
20260509101952 63 273 0.0 0.0 0.00 0.00 0.00 97 1012.5
20260509101448 64 244 0.0 0.0 0.00 0.00 0.00 97 1012.2
20260509100946 64 244 0.0 0.0 0.00 0.00 0.00 97 1012.2
20260509100443 64 264 0.0 0.0 0.00 0.00 0.00 97 1012.2
20260509095939 64 202 0.0 0.0 0.00 0.00 0.00 97 1012.5
20260509095436 64 202 0.0 0.0 0.00 0.00 0.00 97 1012.5
20260509094934 64 258 0.0 0.0 0.00 0.00 0.00 97 1012.5
20260509094430 64 282 0.0 0.0 0.00 0.00 0.00 96 1012.9
20260509093927 64 294 0.0 0.0 0.00 0.00 0.00 96 1012.9
20260509093425 64 228 0.0 0.0 0.00 0.00 0.00 96 1012.9
20260509092923 64 228 0.0 0.0 0.00 0.00 0.00 96 1012.9
20260509092420 64 264 0.0 0.0 0.00 0.00 0.00 96 1012.9
20260509091919 64 227 0.0 0.0 0.00 0.00 0.00 96 1012.9
20260509091415 64 119 0.0 0.0 0.00 0.00 0.00 96 1012.9
20260509090912 64 222 0.0 0.0 0.00 0.00 0.00 96 1012.9
20260509090409 64 222 0.0 0.0 0.00 0.00 0.00 96 1012.9
20260509085907 64 243 0.0 0.0 0.00 0.00 0.00 96 1012.5
20260509085404 64 252 0.0 0.0 0.00 0.00 0.00 95 1012.5
20260509084900 64 242 0.0 0.0 0.00 0.00 0.00 95 1012.5
20260509084357 64 198 0.0 0.0 0.00 0.00 0.00 95 1012.5
20260509083855 64 239 0.0 0.0 0.00 0.00 0.00 95 1012.5
20260509083352 65 240 0.0 0.0 0.00 0.00 0.00 95 1012.5
20260509082848 64 190 0.0 0.0 0.00 0.00 0.00 95 1012.9
20260509082345 64 163 0.0 0.0 0.00 0.00 0.00 95 1012.9
20260509081842 64 214 0.0 0.0 0.00 0.00 0.00 95 1012.9
20260509081339 64 282 0.0 0.0 0.00 0.00 0.00 95 1012.9
20260509080837 65 292 0.0 0.0 0.00 0.00 0.00 95 1012.9
20260509080335 64 306 0.0 0.0 0.00 0.00 0.00 94 1012.9
20260509075833 64 132 0.0 0.0 0.00 0.00 0.00 94 1013.2
20260509075330 65 120 0.0 0.0 0.00 0.00 0.00 94 1013.2
20260509074827 65 258 0.0 0.0 0.00 0.00 0.00 94 1013.2
20260509074325 65 204 0.0 0.0 0.00 0.00 0.00 94 1013.2
20260509073821 65 203 0.0 0.0 0.00 0.00 0.00 93 1013.2
20260509073317 65 210 0.0 0.0 0.00 0.00 0.00 93 1013.2
20260509072814 65 254 0.0 0.0 0.00 0.00 0.00 93 1012.9
20260509072310 65 261 0.0 0.0 0.00 0.00 0.00 93 1012.9
20260509071807 65 286 0.0 0.0 0.00 0.00 0.00 93 1012.9
20260509071304 65 339 0.0 0.0 0.00 0.00 0.00 92 1012.9
20260509070801 65 282 0.0 0.0 0.00 0.00 0.00 92 1012.9
20260509070258 65 292 0.0 0.0 0.00 0.00 0.00 93 1012.9
20260509065754 65 300 0.0 0.0 0.00 0.00 0.00 92 1013.2
20260509065250 65 282 0.0 0.0 0.00 0.00 0.00 92 1013.2
20260509064747 65 282 0.0 0.0 0.00 0.00 0.00 92 1013.2
20260509064244 66 252 0.0 0.0 0.00 0.00 0.00 91 1013.2
20260509063742 66 293 0.0 0.0 0.00 0.00 0.00 91 1013.2
20260509063238 66 159 0.0 0.0 0.00 0.00 0.00 91 1013.2
20260509062735 66 138 0.0 0.0 0.00 0.00 0.00 91 1014.2
20260509062232 66 108 0.0 0.0 0.00 0.00 0.00 90 1014.2
20260509061729 66 303 2.0 2.0 0.00 0.00 0.00 90 1014.2
20260509061227 66 260 0.0 0.0 0.00 0.00 0.00 90 1013.9
20260509060724 66 108 0.0 0.0 0.00 0.00 0.00 90 1013.9
20260509060220 66 258 0.0 0.0 0.00 0.00 0.00 90 1013.9
20260509055716 66 180 0.0 0.0 0.00 0.00 0.00 89 1014.2
20260509055212 66 180 0.0 0.0 0.00 0.00 0.00 89 1014.2
20260509054709 66 354 0.0 0.0 0.00 0.00 0.00 89 1014.2
20260509054206 66 303 0.0 0.0 0.00 0.00 0.00 89 1013.9
20260509053705 66 242 0.0 0.0 0.00 0.00 0.00 89 1013.9
20260509053201 66 222 0.0 0.0 0.00 0.00 0.00 89 1013.9
20260509052659 65 192 0.0 0.0 0.00 0.00 0.00 89 1014.2
20260509052156 65 132 0.0 0.0 0.00 0.00 0.00 89 1014.2
20260509051654 65 138 0.0 0.0 0.00 0.00 0.00 89 1014.2
20260509051151 65 196 0.0 0.0 0.00 0.00 0.00 89 1014.9
20260509050648 66 195 0.0 0.0 0.00 0.00 0.00 89 1014.9
20260509050144 66 186 0.0 0.0 0.00 0.00 0.00 89 1014.9
20260509045642 66 221 0.0 0.0 0.00 0.00 0.00 88 1015.6
20260509045139 66 288 0.0 0.0 0.00 0.00 0.00 88 1015.6
20260509044636 66 288 0.0 0.0 0.00 0.00 0.00 88 1015.6
20260509044133 66 297 0.0 0.0 0.00 0.00 0.00 88 1015.2
20260509043630 66 330 0.0 0.0 0.00 0.00 0.00 87 1015.2
20260509043125 66 276 0.0 0.0 0.00 0.00 0.00 88 1015.2
20260509042622 65 258 0.0 0.0 0.00 0.00 0.00 88 1014.5
20260509042118 65 292 0.0 0.0 0.00 0.00 0.00 88 1014.5
20260509041615 65 150 0.0 0.0 0.00 0.00 0.00 89 1014.5
20260509041113 65 171 0.0 0.0 0.00 0.00 0.00 89 1015.9
20260509040611 65 207 0.0 0.0 0.00 0.00 0.00 88 1015.9
20260509040108 65 207 0.0 0.0 0.00 0.00 0.00 88 1015.9
20260509035604 65 234 0.0 0.0 0.00 0.00 0.00 87 1015.9
20260509035101 65 246 0.0 0.0 0.00 0.00 0.00 87 1015.9
20260509034559 65 266 0.0 0.0 0.00 0.00 0.00 87 1015.9
20260509034055 65 197 0.0 0.0 0.00 0.00 0.00 87 1015.9
20260509033553 65 190 0.0 0.0 0.00 0.00 0.00 86 1015.9
20260509033050 65 210 0.0 0.0 0.00 0.00 0.00 86 1015.9
20260509032547 65 210 0.0 0.0 0.00 0.00 0.00 86 1015.9
20260509032044 65 198 0.0 0.0 0.00 0.00 0.00 86 1015.9
20260509031542 65 156 0.0 0.0 0.00 0.00 0.00 86 1016.2
20260509031038 65 222 0.0 0.0 0.00 0.00 0.00 85 1016.2
20260509030537 66 222 0.0 0.0 0.00 0.00 0.00 85 1016.2
20260509030033 66 221 0.0 0.0 0.00 0.00 0.00 85 1016.2
20260509025529 66 221 0.0 0.0 0.00 0.00 0.00 85 1016.2
20260509025025 66 222 0.0 0.0 0.00 0.00 0.00 85 1016.2
20260509024521 66 234 0.0 0.0 0.00 0.00 0.00 84 1015.6
20260509024017 66 234 0.0 0.0 0.00 0.00 0.00 84 1015.6
20260509023515 66 216 0.0 0.0 0.00 0.00 0.00 84 1015.6
20260509023012 66 216 0.0 0.0 0.00 0.00 0.00 84 1015.6
20260509022508 66 236 0.0 0.0 0.00 0.00 0.00 83 1015.6
20260509022006 66 319 0.0 0.0 0.00 0.00 0.00 84 1015.6
20260509021503 66 98 0.0 0.0 0.00 0.00 0.00 84 1015.6
20260509021000 66 162 0.0 0.0 0.00 0.00 0.00 83 1015.6
20260509020458 66 198 0.0 0.0 0.00 0.00 0.00 83 1015.6
20260509015955 66 176 0.0 0.0 0.00 0.00 0.00 82 1015.9
20260509015454 66 210 0.0 0.0 0.00 0.00 0.00 81 1015.9
20260509014950 66 213 0.0 0.0 0.00 0.00 0.00 81 1015.9
20260509014447 67 227 0.0 0.0 0.00 0.00 0.00 81 1015.6
20260509013943 67 252 0.0 0.0 0.00 0.00 0.00 81 1015.6
20260509013440 67 288 0.0 0.0 0.00 0.00 0.00 81 1015.6
20260509012936 67 181 0.0 0.0 0.00 0.00 0.00 81 1015.6
20260509012432 66 162 0.0 0.0 0.00 0.00 0.00 81 1015.6
20260509011930 67 162 0.0 0.0 0.00 0.00 0.00 80 1015.6
20260509011427 67 126 0.0 0.0 0.00 0.00 0.00 80 1015.2
20260509010925 67 180 0.0 0.0 0.00 0.00 0.00 80 1015.2
20260509010422 67 162 0.0 0.0 0.00 0.00 0.00 81 1015.2
20260509005919 67 120 0.0 0.0 0.00 0.00 0.00 80 1015.2
20260509005417 67 144 0.0 0.0 0.00 0.00 0.00 81 1015.2
20260509004917 67 180 0.0 0.0 0.00 0.00 0.00 80 1015.2
20260509004414 67 171 0.0 0.0 0.00 0.00 0.00 80 1015.2
20260509003912 67 157 0.0 0.0 0.00 0.00 0.00 80 1015.2
20260509003409 67 180 0.0 0.0 0.00 0.00 0.00 80 1015.2
20260509002906 67 198 0.0 0.0 0.00 0.00 0.00 80 1014.9
20260509002404 67 150 0.0 0.0 0.00 0.00 0.00 79 1014.9
20260509001901 67 102 0.0 0.0 0.00 0.00 0.00 78 1014.9
20260509001356 67 134 0.0 0.0 0.00 0.00 0.00 78 1014.9
20260509000854 67 132 0.0 0.0 0.00 0.00 0.00 78 1014.9
20260509000352 67 108 0.0 0.0 0.00 0.00 0.00 77 1014.9
20260508235848 67 108 0.0 0.0 0.00 0.00 0.00 76 1014.9
20260508235345 67 170 0.0 0.0 0.00 0.00 0.00 76 1014.9
20260508234842 67 157 0.0 0.0 0.00 0.00 0.00 75 1014.9
20260508234338 67 156 0.0 0.0 0.00 0.00 0.00 75 1014.5
20260508233837 67 135 0.0 0.0 0.00 0.00 0.00 75 1014.5
20260508233336 68 126 0.0 0.0 0.00 0.00 0.00 74 1014.5
20260508232832 68 144 0.0 0.0 0.00 0.00 0.00 73 1014.9
20260508232329 68 168 0.0 0.0 0.00 0.00 0.00 74 1014.9
20260508231827 68 147 0.0 0.0 0.00 0.00 0.00 74 1014.9
20260508231324 68 120 0.0 0.0 0.00 0.00 0.00 73 1014.9
20260508230820 68 102 0.0 0.0 0.00 0.00 0.00 72 1014.9
20260508230316 68 156 0.0 0.0 0.00 0.00 0.00 73 1014.9
20260508225814 68 102 0.0 0.0 0.00 0.00 0.00 71 1014.5
20260508225310 69 132 0.0 0.0 0.00 0.00 0.00 72 1014.5
20260508224809 68 152 0.0 0.0 0.00 0.00 0.00 74 1014.5
20260508224306 68 169 0.0 0.0 0.00 0.00 0.00 74 1014.9
20260508223803 69 144 0.0 0.0 0.00 0.00 0.00 73 1014.9
20260508223301 69 90 0.0 0.0 0.00 0.00 0.00 72 1014.9
20260508222758 69 170 0.0 0.0 0.00 0.00 0.00 73 1014.9
20260508222255 69 66 0.0 0.0 0.00 0.00 0.00 73 1014.9
20260508221752 69 157 0.0 0.0 0.00 0.00 0.00 72 1014.9
20260508221247 69 138 0.0 0.0 0.00 0.00 0.00 72 1014.9
20260508220743 69 124 4.0 4.0 0.00 0.00 0.00 72 1014.9
20260508220240 69 114 0.0 0.0 0.00 0.00 0.00 72 1014.9
20260508215736 69 165 0.0 0.0 0.00 0.00 0.00 72 1014.5
20260508215233 69 266 0.0 0.0 0.00 0.00 0.00 71 1014.5
20260508214731 69 124 2.0 2.0 0.00 0.00 0.00 72 1014.5
20260508214228 69 96 0.0 0.0 0.00 0.00 0.00 71 1014.5
20260508213724 70 78 0.0 0.0 0.00 0.00 0.00 70 1014.5
20260508213221 70 96 0.0 0.0 0.00 0.00 0.00 68 1014.5
20260508212718 70 138 2.0 2.0 0.00 0.00 0.00 69 1015.2
20260508212214 70 120 2.0 2.0 0.00 0.00 0.00 67 1015.2
20260508211709 70 182 0.0 0.0 0.00 0.00 0.00 68 1015.2
20260508211205 71 144 0.0 0.0 0.00 0.00 0.00 68 1014.9
20260508210703 71 159 2.0 2.0 0.00 0.00 0.00 66 1014.9
20260508210200 70 72 0.0 0.0 0.00 0.00 0.00 69 1014.9
20260508205657 70 72 1.0 1.0 0.00 0.00 0.00 69 1014.5
20260508205153 70 72 0.0 0.0 0.00 0.00 0.00 69 1014.5
20260508204649 70 124 0.0 0.0 0.00 0.00 0.00 69 1014.5
20260508204145 69 165 0.0 0.0 0.00 0.00 0.00 69 1014.5
20260508203642 70 96 3.0 3.0 0.00 0.00 0.00 68 1014.5
20260508203138 70 131 1.0 1.0 0.00 0.00 0.00 69 1014.5
20260508202634 71 198 2.0 2.0 0.00 0.00 0.00 67 1014.5
20260508202132 71 84 0.0 0.0 0.00 0.00 0.00 67 1014.5
20260508201628 72 139 2.0 2.0 0.00 0.00 0.00 66 1014.9
20260508201125 72 139 2.0 2.0 0.00 0.00 0.00 66 1014.9
20260508200622 72 162 2.0 2.0 0.00 0.00 0.00 67 1014.9
20260508200118 72 107 1.0 1.0 0.00 0.00 0.00 66 1014.9
20260508195615 72 134 3.0 3.0 0.00 0.00 0.00 65 1015.2
20260508195111 72 161 1.0 1.0 0.00 0.00 0.00 64 1015.2
20260508194608 73 85 2.0 2.0 0.00 0.00 0.00 62 1015.2
20260508194105 73 114 1.0 1.0 0.00 0.00 0.00 63 1015.2
20260508193601 74 147 2.0 2.0 0.00 0.00 0.00 60 1015.2
20260508193058 75 134 2.0 2.0 0.00 0.00 0.00 59 1015.6
20260508192555 75 125 2.0 2.0 0.00 0.00 0.00 61 1015.6
20260508192052 74 287 0.0 0.0 0.00 0.00 0.00 61 1015.6
20260508191548 74 156 2.0 2.0 0.00 0.00 0.00 61 1015.2
20260508191045 73 120 0.0 0.0 0.00 0.00 0.00 61 1015.2
20260508190543 74 102 2.0 2.0 0.00 0.00 0.00 62 1015.2
20260508190039 74 184 2.0 2.0 0.00 0.00 0.00 58 1015.6
20260508185536 75 165 3.0 3.0 0.00 0.00 0.00 57 1015.6
20260508185034 76 13 2.0 2.0 0.00 0.00 0.00 60 1015.6
20260508184531 77 47 3.0 3.0 0.00 0.00 0.00 56 1015.2
20260508184028 76 96 2.0 2.0 0.00 0.00 0.00 58 1015.2
20260508183524 75 210 3.0 3.0 0.00 0.00 0.00 57 1015.2
20260508183020 77 138 3.0 3.0 0.00 0.00 0.00 53 1015.6
20260508182517 78 108 2.0 2.0 0.00 0.00 0.00 55 1015.6
20260508182013 78 132 2.0 2.0 0.00 0.00 0.00 57 1015.6
20260508181509 77 60 3.0 4.0 0.00 0.00 0.00 52 1015.9
20260508181007 77 301 2.0 2.0 0.00 0.00 0.00 49 1015.9
20260508180503 77 198 2.0 2.0 0.00 0.00 0.00 48 1015.9
20260508175959 78 174 0.0 0.0 0.00 0.00 0.00 48 1015.9
20260508175456 78 358 0.0 0.0 0.00 0.00 0.00 46 1015.9
20260508174954 78 174 2.0 2.0 0.00 0.00 0.00 47 1015.9
20260508174451 77 238 4.0 4.0 0.00 0.00 0.00 50 1015.9
20260508173948 78 114 2.0 2.0 0.00 0.00 0.00 48 1015.9
20260508173445 77 188 2.0 2.0 0.00 0.00 0.00 46 1015.9
20260508172940 76 138 2.0 2.0 0.00 0.00 0.00 52 1016.2
20260508172438 77 58 2.0 2.0 0.00 0.00 0.00 49 1016.2
20260508171934 76 89 3.0 4.0 0.00 0.00 0.00 48 1016.2
20260508171431 76 38 4.0 4.0 0.00 0.00 0.00 49 1016.6
20260508170928 75 84 2.0 2.0 0.00 0.00 0.00 50 1016.6
20260508170425 75 294 4.0 4.0 0.00 0.00 0.00 50 1016.6
20260508165922 75 258 3.0 3.0 0.00 0.00 0.00 51 1016.6
20260508165420 75 156 2.0 2.0 0.00 0.00 0.00 49 1016.6
20260508164915 75 49 2.0 2.0 0.00 0.00 0.00 50 1016.6
20260508164413 74 174 0.0 0.0 0.00 0.00 0.00 51 1016.6
20260508163909 74 187 1.0 1.0 0.00 0.00 0.00 50 1016.6
20260508163408 74 323 0.0 0.0 0.00 0.00 0.00 50 1016.6
20260508162902 74 236 1.0 1.0 0.00 0.00 0.00 52 1016.9
20260508162400 73 354 2.0 2.0 0.00 0.00 0.00 50 1016.9
20260508161857 74 229 1.0 1.0 0.00 0.00 0.00 49 1016.9
20260508161354 73 172 1.0 1.0 0.00 0.00 0.00 50 1017.3
20260508160851 73 348 4.0 4.0 0.00 0.00 0.00 48 1017.3
20260508160350 73 198 0.0 0.0 0.00 0.00 0.00 53 1017.3
20260508155846 74 210 2.0 2.0 0.00 0.00 0.00 51 1017.6
20260508155343 74 90 0.0 0.0 0.00 0.00 0.00 50 1017.6
20260508154840 73 83 0.0 0.0 0.00 0.00 0.00 52 1017.6
20260508154338 72 260 0.0 0.0 0.00 0.00 0.00 52 1017.3
20260508153834 71 90 0.0 0.0 0.00 0.00 0.00 55 1017.3
20260508153332 71 48 4.0 4.0 0.00 0.00 0.00 55 1017.3
20260508152827 71 290 4.0 4.0 0.00 0.00 0.00 57 1017.3
20260508152324 72 66 3.0 3.0 0.00 0.00 0.00 53 1017.3
20260508151820 72 84 0.0 0.0 0.00 0.00 0.00 54 1017.3
20260508151318 71 343 0.0 0.0 0.00 0.00 0.00 53 1017.6
20260508150814 70 30 0.0 0.0 0.00 0.00 0.00 55 1017.6
20260508150311 69 56 0.0 0.0 0.00 0.00 0.00 57 1017.6
20260508145807 69 230 0.0 0.0 0.00 0.00 0.00 56 1017.6
20260508145306 70 129 0.0 0.0 0.00 0.00 0.00 61 1017.6
20260508144800 69 138 0.0 0.0 0.00 0.00 0.00 61 1017.6
20260508144258 69 79 3.0 4.0 0.00 0.00 0.00 61 1017.6
20260508143755 69 33 4.0 4.0 0.00 0.00 0.00 61 1017.6
20260508143252 68 114 0.0 0.0 0.00 0.00 0.00 62 1017.6
20260508142748 67 239 2.0 2.0 0.00 0.00 0.00 62 1016.9
20260508142246 67 288 3.0 4.0 0.00 0.00 0.00 63 1016.9
20260508141742 67 35 0.0 0.0 0.00 0.00 0.00 64 1016.9
20260508141239 66 10 3.0 3.0 0.00 0.00 0.00 64 1017.3
20260508140736 65 91 1.0 1.0 0.00 0.00 0.00 69 1017.3
20260508140233 65 78 4.0 4.0 0.00 0.00 0.00 69 1017.3
20260508135729 66 47 3.0 4.0 0.00 0.00 0.00 70 1017.3
20260508135225 65 343 2.0 2.0 0.00 0.00 0.00 69 1017.3
20260508134721 65 134 0.0 0.0 0.00 0.00 0.00 72 1016.9
20260508134219 65 120 0.0 0.0 0.00 0.00 0.00 71 1016.9
20260508133715 65 181 0.0 0.0 0.00 0.00 0.00 71 1016.9
20260508133214 65 28 4.0 4.0 0.00 0.00 0.00 72 1016.9
20260508132711 64 242 3.0 3.0 0.00 0.00 0.00 73 1016.6
20260508132208 64 354 3.0 3.0 0.00 0.00 0.00 76 1016.6
20260508131703 63 52 2.0 2.0 0.00 0.00 0.00 77 1016.6
20260508131200 63 349 3.0 3.0 0.00 0.00 0.00 77 1016.6
20260508130656 63 203 1.0 1.0 0.00 0.00 0.00 78 1016.6
20260508130154 63 18 0.0 0.0 0.00 0.00 0.00 79 1016.6
20260508125649 62 294 1.0 1.0 0.00 0.00 0.00 80 1016.6
20260508125146 62 44 2.0 2.0 0.00 0.00 0.00 80 1016.6
20260508124644 62 51 3.0 3.0 0.00 0.00 0.00 80 1016.6
20260508124141 62 210 0.0 0.0 0.00 0.00 0.00 81 1016.6